Time,TemperatureF,DewpointF,PressureIn,WindDirection,WindDirectionDegrees,WindSpeedMPH,WindSpeedGustMPH,Humidity,HourlyPrecipIn,Conditions,Clouds,dailyrainin,SoftwareType,DateUTC
2013-05-21 01:22:00,30.0,-99.9,-100.00,SSE,156,0.0,0.0,-999,-99.99,,,-99.99,,2013-05-21 09:22:00,
2013-05-21 01:33:00,30.0,-99.9,-100.00,SSE,156,0.0,0.0,-999,-99.99,,,-99.99,,2013-05-21 09:33:00,
2013-05-21 02:22:00,29.0,-99.9,-100.00,SE,124,0.0,0.0,-999,-99.99,,,-99.99,,2013-05-21 10:22:00,
2013-05-21 02:33:00,29.0,-99.9,-100.00,SE,124,0.0,0.0,-999,-99.99,,,-99.99,,2013-05-21 10:33:00,
2013-05-21 02:42:00,29.0,-99.9,-100.00,SE,124,0.0,0.0,-999,-99.99,,,-99.99,,2013-05-21 10:42:00,
2013-05-21 02:53:00,29.0,-99.9,-100.00,SE,124,0.0,0.0,-999,-99.99,,,-99.99,,2013-05-21 10:53:00,
2013-05-21 03:22:00,28.0,-99.9,-100.00,ESE,117,0.0,0.0,-999,-99.99,,,-99.99,,2013-05-21 11:22:00,
2013-05-21 03:32:00,28.0,-99.9,-100.00,ESE,117,0.0,0.0,-999,-99.99,,,-99.99,,2013-05-21 11:32:00,
2013-05-21 03:42:00,28.0,-99.9,-100.00,ESE,117,0.0,0.0,-999,-99.99,,,-99.99,,2013-05-21 11:42:00,
2013-05-21 03:52:00,28.0,-99.9,-100.00,ESE,117,0.0,0.0,-999,-99.99,,,-99.99,,2013-05-21 11:52:00,
2013-05-21 04:22:00,26.0,-99.9,-100.00,ESE,117,0.0,0.0,-999,-99.99,,,-99.99,,2013-05-21 12:22:00,
2013-05-21 04:42:00,26.0,-99.9,-100.00,ESE,117,0.0,0.0,-999,-99.99,,,-99.99,,2013-05-21 12:42:00,
2013-05-21 04:52:00,26.0,-99.9,-100.00,ESE,117,0.0,0.0,-999,-99.99,,,-99.99,,2013-05-21 12:52:00,
2013-05-21 07:11:00,29.0,-99.9,-100.00,ESE,117,0.0,0.0,-999,-99.99,,,-99.99,,2013-05-21 15:11:00,
2013-05-21 07:21:00,29.0,-99.9,-100.00,ESE,117,0.0,0.0,-999,-99.99,,,-99.99,,2013-05-21 15:21:00,
2013-05-21 07:33:00,29.0,-99.9,-100.00,ESE,117,0.0,0.0,-999,-99.99,,,-99.99,,2013-05-21 15:33:00,
2013-05-21 08:13:00,38.0,-99.9,-100.00,ESE,117,0.0,0.0,-999,-99.99,,,-99.99,,2013-05-21 16:13:00,
2013-05-21 08:23:00,38.0,-99.9,-100.00,ESE,117,0.0,0.0,-999,-99.99,,,-99.99,,2013-05-21 16:23:00,
2013-05-21 08:32:00,38.0,-99.9,-100.00,ESE,117,0.0,0.0,-999,-99.99,,,-99.99,,2013-05-21 16:32:00,
2013-05-21 08:42:00,38.0,-99.9,-100.00,ESE,117,0.0,0.0,-999,-99.99,,,-99.99,,2013-05-21 16:42:00,
2013-05-21 08:53:00,38.0,-99.9,-100.00,ESE,117,0.0,0.0,-999,-99.99,,,-99.99,,2013-05-21 16:53:00,
2013-05-21 12:22:00,50.0,-99.9,-100.00,North,0,5.0,10.0,-999,-99.99,,,-99.99,,2013-05-21 20:22:00,
2013-05-21 12:33:00,50.0,-99.9,-100.00,North,0,5.0,10.0,-999,-99.99,,,-99.99,,2013-05-21 20:33:00,
2013-05-21 12:42:00,50.0,-99.9,-100.00,North,0,5.0,10.0,-999,-99.99,,,-99.99,,2013-05-21 20:42:00,
2013-05-21 12:52:00,50.0,-99.9,-100.00,North,0,5.0,10.0,-999,-99.99,,,-99.99,,2013-05-21 20:52:00,
2013-05-21 12:54:00,52.0,-99.9,-100.00,WNW,295,8.0,10.0,-999,-99.99,,,-99.99,,2013-05-21 20:54:00,
2013-05-21 13:22:00,52.0,-99.9,-100.00,WNW,295,8.0,10.0,-999,-99.99,,,-99.99,,2013-05-21 21:22:00,
2013-05-21 13:33:00,52.0,-99.9,-100.00,WNW,295,8.0,10.0,-999,-99.99,,,-99.99,,2013-05-21 21:33:00,
2013-05-21 13:44:00,52.0,-99.9,-100.00,WNW,295,8.0,10.0,-999,-99.99,,,-99.99,,2013-05-21 21:44:00,
2013-05-21 17:22:00,53.0,-99.9,-100.00,SSW,203,6.0,12.0,-999,-99.99,,,-99.99,,2013-05-22 01:22:00,
2013-05-21 17:32:00,53.0,-99.9,-100.00,SSW,203,6.0,12.0,-999,-99.99,,,-99.99,,2013-05-22 01:32:00,
2013-05-21 17:42:00,53.0,-99.9,-100.00,SSW,203,6.0,12.0,-999,-99.99,,,-99.99,,2013-05-22 01:42:00,
2013-05-21 17:52:00,53.0,-99.9,-100.00,SSW,203,6.0,12.0,-999,-99.99,,,-99.99,,2013-05-22 01:52:00,
2013-05-21 18:12:00,51.0,-99.9,-100.00,SSE,166,0.0,6.0,-999,-99.99,,,-99.99,,2013-05-22 02:12:00,
2013-05-21 18:22:00,51.0,-99.9,-100.00,SSE,166,0.0,6.0,-999,-99.99,,,-99.99,,2013-05-22 02:22:00,
2013-05-21 18:32:00,51.0,-99.9,-100.00,SSE,166,0.0,6.0,-999,-99.99,,,-99.99,,2013-05-22 02:32:00,
2013-05-21 18:42:00,51.0,-99.9,-100.00,SSE,166,0.0,6.0,-999,-99.99,,,-99.99,,2013-05-22 02:42:00,
2013-05-21 18:52:00,51.0,-99.9,-100.00,SSE,166,0.0,6.0,-999,-99.99,,,-99.99,,2013-05-22 02:52:00,
2013-05-21 21:12:00,47.0,-99.9,-100.00,ESE,118,0.0,5.0,-999,-99.99,,,-99.99,,2013-05-22 05:12:00,
2013-05-21 21:22:00,47.0,-99.9,-100.00,ESE,118,0.0,5.0,-999,-99.99,,,-99.99,,2013-05-22 05:22:00,
2013-05-21 21:32:00,47.0,-99.9,-100.00,ESE,118,0.0,5.0,-999,-99.99,,,-99.99,,2013-05-22 05:32:00,
2013-05-21 21:42:00,47.0,-99.9,-100.00,ESE,118,0.0,5.0,-999,-99.99,,,-99.99,,2013-05-22 05:42:00,
2013-05-21 21:52:00,47.0,-99.9,-100.00,ESE,118,0.0,5.0,-999,-99.99,,,-99.99,,2013-05-22 05:52:00,
2013-05-21 22:12:00,44.0,-99.9,-100.00,SE,128,0.0,0.0,-999,-99.99,,,-99.99,,2013-05-22 06:12:00,
2013-05-21 22:22:00,44.0,-99.9,-100.00,SE,128,0.0,0.0,-999,-99.99,,,-99.99,,2013-05-22 06:22:00,
2013-05-21 22:32:00,44.0,-99.9,-100.00,SE,128,0.0,0.0,-999,-99.99,,,-99.99,,2013-05-22 06:32:00,
2013-05-21 22:42:00,44.0,-99.9,-100.00,SE,128,0.0,0.0,-999,-99.99,,,-99.99,,2013-05-22 06:42:00,
2013-05-21 22:52:00,44.0,-99.9,-100.00,SE,128,0.0,0.0,-999,-99.99,,,-99.99,,2013-05-22 06:52:00,
2013-05-21 23:22:00,39.0,-99.9,-100.00,SE,128,0.0,0.0,-999,-99.99,,,-99.99,,2013-05-22 07:22:00,
2013-05-21 23:32:00,39.0,-99.9,-100.00,SE,128,0.0,0.0,-999,-99.99,,,-99.99,,2013-05-22 07:32:00,
2013-05-21 23:42:00,39.0,-99.9,-100.00,SE,128,0.0,0.0,-999,-99.99,,,-99.99,,2013-05-22 07:42:00,
2013-05-21 23:53:00,39.0,-99.9,-100.00,SE,128,0.0,0.0,-999,-99.99,,,-99.99,,2013-05-22 07:53:00,